Weather History for Crestview, FL

Change the Weather History Date:

Saturday, March 9, 2013

  Actual Average Record
Temperature  
Mean Temperature 56 °F -  
Max Temperature 71 °F 70 °F 84 °F (1951)
Min Temperature 41 °F 44 °F 28 °F (2008)
Degree Days  
Heating Degree Days 9    
Growing Degree Days 6 (Base 50)    
Moisture  
Dew Point 41 °F    
Average Humidity 61    
Maximum Humidity 89    
Minimum Humidity 30    
Precipitation  
Precipitation 0.00 in - - ()
Sea Level Pressure  
Sea Level Pressure 30.20 in    
Wind  
Wind Speed 3 mph (SE)    
Max Wind Speed 12 mph    
Max Gust Speed -    
Visibility 9 miles    
Events      
Averages and records for this station are not official NWS values.
T = Trace of Precipitation, MM = Missing Value Source: NWS Daily Summary

Daily Weather History Graph

Daily Weather History Graph

Search for Another Location

Airport:

Trip Planner

Search our weather history database for the weather conditions in past years. The results will help you decide how hot, cold, wet, or windy it might be!

Date:

Astronomy

Mar. 09, 2013 Rise Set
Actual Time 6:02 AM CST 5:50 PM CST
Civil Twilight 5:38 AM CST 6:14 PM CST
Nautical Twilight 5:10 AM CST 6:42 PM CST
Astronomical Twilight 4:42 AM CST 7:10 PM CST
Moon 4:19 AM CST (3/9) 3:57 PM CST (3/9)
Length of Visible Light 12h 35m
Length of Day
11h 47m
Waning Crescent, 5% of the Moon is Illuminated
Mar 9
Waning Crescent
Mar 11
New
Mar 19
First Quarter
Mar 27
Full
Apr 2
Last Quarter

Hourly Weather History & Observations

Time (CST) Temp. Windchill Dew Point Humidity Pressure Visibility Wind Dir Wind Speed Gust Speed Precip Events Conditions
12:53 AM 42.1 °F - 37.9 °F 85% 30.21 in 5.0 mi Calm Calm - N/A   Clear
1:53 AM 41.0 °F - 37.9 °F 89% 30.20 in 6.0 mi Calm Calm - N/A   Clear
2:53 AM 42.1 °F - 37.9 °F 85% 30.19 in 6.0 mi Calm Calm - N/A   Clear
3:53 AM 41.0 °F - 37.0 °F 86% 30.20 in 6.0 mi Calm Calm - N/A   Clear
4:53 AM 42.1 °F 40.2 °F 37.9 °F 85% 30.19 in 8.0 mi ENE 3.5 mph - N/A   Clear
5:53 AM 42.1 °F 40.2 °F 37.9 °F 85% 30.21 in 8.0 mi ENE 3.5 mph - N/A   Clear
6:53 AM 46.0 °F 44.8 °F 39.9 °F 79% 30.22 in 6.0 mi NE 3.5 mph - N/A   Haze
7:53 AM 52.0 °F - 39.9 °F 63% 30.25 in 7.0 mi Calm Calm - N/A   Clear
8:53 AM 63.0 °F - 39.0 °F 41% 30.25 in 9.0 mi ESE 6.9 mph - N/A   Clear
9:53 AM 66.9 °F - 39.0 °F 36% 30.25 in 10.0 mi ESE 9.2 mph - N/A   Clear
10:53 AM 69.1 °F - 37.0 °F 31% 30.25 in 10.0 mi SSE 6.9 mph - N/A   Clear
11:53 AM 71.1 °F - 37.9 °F 30% 30.23 in 10.0 mi South 4.6 mph - N/A   Clear
12:53 PM 71.1 °F - 39.0 °F 31% 30.20 in 10.0 mi South 6.9 mph - N/A   Clear
1:53 PM 70.0 °F - 39.9 °F 33% 30.19 in 10.0 mi SSW 9.2 mph - N/A   Clear
2:53 PM 68.0 °F - 42.1 °F 39% 30.19 in 10.0 mi SSW 11.5 mph - N/A   Clear
3:53 PM 66.9 °F - 42.1 °F 40% 30.18 in 10.0 mi South 8.1 mph - N/A   Clear
4:53 PM 64.9 °F - 42.1 °F 43% 30.19 in 10.0 mi South 8.1 mph - N/A   Clear
5:53 PM 62.1 °F - 43.0 °F 50% 30.18 in 10.0 mi South 4.6 mph - N/A   Clear
6:53 PM 57.9 °F - 43.0 °F 58% 30.17 in 10.0 mi Calm Calm - 0.00 in   Clear
7:53 PM 55.9 °F - 46.9 °F 72% 30.17 in 10.0 mi Calm Calm - N/A   Clear
8:53 PM 57.9 °F - 48.0 °F 70% 30.16 in 10.0 mi Variable 3.5 mph - N/A   Clear
9:53 PM 53.1 °F - 46.9 °F 80% 30.15 in 10.0 mi Calm Calm - N/A   Clear
10:53 PM 48.9 °F - 45.0 °F 86% 30.13 in 8.0 mi East 3.5 mph - N/A   Clear
11:53 PM 52.0 °F - 43.0 °F 71% 30.12 in 10.0 mi East 3.5 mph - N/A   Clear